Tracking 30922 objects as of 2-Jul-2025
HD Live streaming from Space Station
objects crossing your sky now

PEGASUS R/B

Track PEGASUS R/B now!
10-day predictions


NORAD ID: 25506
Int'l Code: 1998-060B
Perigee: 724.2 km
Apogee: 756.1 km
Inclination: 25.0 °
Period: 99.5 minutes
Semi major axis: 7111 km
RCS: 1.6048 m2 (large)
Launch date: October 23, 1998
Source: United States (US)
Launch site: Pegasus launched from Eastern Range Air Space (ERAS)

Note: This is a ROCKET BODY
Your satellite tracking list
Your tracking list is empty




NASA's NSSDC Master Catalog

Two Line Element Set (TLE):
1 25506U 98060B   25182.85941208  .00000380  00000-0  52154-4 0  9998
2 25506  24.9956 244.3759 0022472 336.5240 185.6384 14.47751425411842
Source of the keplerian elements: AFSPC